GW1299 Weather Reports


time (UTC)temp
C
wind
direction
speed
KPH
gust
KPH
rain 1hr
cm
rain 24hr
cm
rain mn
cm
humidity
%
barometer
mb
20260504231502 21 108 1.6 11.3 0.00 0.00 0.00 43 1009.9
20260504230002 21 97 3.2 9.7 0.00 0.00 0.00 42 1010.1
20260504224503 22 108 1.6 12.9 0.00 0.00 0.00 40 1010.0
20260504223110 22 110 4.8 14.5 0.00 0.00 0.00 39 1010.0
20260504221559 22 92 6.4 22.5 0.00 0.00 0.00 39 1009.8
20260504220101 22 91 4.8 19.3 0.00 0.00 0.00 39 1009.8
20260504214557 23 143 6.4 14.5 0.00 0.00 0.00 37 1009.9
20260504213101 24 76 1.6 8.0 0.00 0.00 0.00 35 1009.9
20260504211559 24 76 1.6 11.3 0.00 0.00 0.00 34 1009.9
20260504210101 24 109 0.0 6.4 0.00 0.00 0.00 34 1009.9
20260504204554 24 67 3.2 14.5 0.00 0.00 0.00 33 1010.0
20260504203050 24 101 1.6 9.7 0.00 0.00 0.00 34 1010.1
20260504201549 24 102 1.6 9.7 0.00 0.00 0.00 34 1010.3
20260504200057 24 269 0.0 8.0 0.00 0.00 0.00 35 1010.5
20260504194542 24 102 0.0 9.7 0.00 0.00 0.00 35 1010.7
20260504193044 24 228 3.2 8.0 0.00 0.00 0.00 35 1011.0
20260504191540 23 337 3.2 9.7 0.00 0.00 0.00 37 1011.2
20260504190037 24 93 3.2 9.7 0.00 0.00 0.00 36 1011.5
20260504184538 23 77 1.6 8.0 0.00 0.00 0.00 36 1011.8
20260504183036 23 110 1.6 8.0 0.00 0.00 0.00 37 1011.9
20260504181531 23 27 0.0 14.5 0.00 0.00 0.00 35 1012.0
20260504180028 23 245 1.6 8.0 0.00 0.00 0.00 34 1012.4
20260504174524 23 74 1.6 6.4 0.00 0.00 0.00 34 1012.5
20260504173023 23 108 1.6 8.0 0.00 0.00 0.00 34 1012.8
20260504171521 23 58 0.0 9.7 0.00 0.00 0.00 37 1012.9
20260504081546 10 358 0.0 3.2 0.00 0.00 0.00 65 1015.9
20260504050018 6 106 0.0 0.0 0.00 0.00 0.00 74 1016.0
20260504044518 6 106 0.0 0.0 0.00 0.00 0.00 75 1016.0
20260504043016 6 106 0.0 0.0 0.00 0.00 0.00 74 1016.1
20260504041511 6 106 0.0 0.0 0.00 0.00 0.00 73 1016.1
20260504040008 6 106 0.0 0.0 0.00 0.00 0.00 73 1016.1
20260504034510 6 106 0.0 0.0 0.00 0.00 0.00 72 1015.9
20260504033007 6 106 0.0 0.0 0.00 0.00 0.00 69 1015.8
20260504031511 7 106 0.0 3.2 0.00 0.00 0.00 67 1015.7
20260504030007 7 317 0.0 3.2 0.00 0.00 0.00 69 1015.4
20260504024506 7 317 0.0 3.2 0.00 0.00 0.00 66 1015.5
20260504023008 7 317 0.0 3.2 0.00 0.00 0.00 66 1015.5
20260504021509 7 317 0.0 1.6 0.00 0.00 0.00 66 1015.4
20260504020004 8 317 0.0 0.0 0.00 0.00 0.00 62 1015.3
20260504014504 8 317 0.0 1.6 0.00 0.00 0.00 61 1015.3
20260504013005 9 317 0.0 0.0 0.00 0.00 0.00 59 1015.3
20260504011502 9 317 0.0 0.0 0.00 0.00 0.00 58 1015.1
20260504010003 10 317 0.0 0.0 0.00 0.00 0.00 54 1015.0
20260504004505 11 317 0.0 3.2 0.00 0.00 0.00 51 1015.0
20260504003001 12 317 0.0 3.2 0.00 0.00 0.00 45 1014.7
20260504001503 13 317 0.0 3.2 0.00 0.00 0.00 41 1014.5
20260504000105 14 317 0.0 3.2 0.00 0.00 0.00 36 1014.5
20260503234600 15 318 0.0 3.2 0.00 0.00 0.00 34 1014.4
20260503233109 15 318 0.0 3.2 0.00 0.00 0.00 34 1014.2